Wind_Speed
15 19 20 19 18 17 17 13 11 10 10 10 11 11 12 13 13 13 12 11 11 11 11 11 12 12 12 12 12 12 13 15 16 18 17 16 15 14 14 14 14 12 12
13 20 20 19 18 16 15 13 10 9 9 9 9 10 10 11 11 10 10 9 9 9 9 9 10 10 10 10 10 11 13 17 19 19 16 17 14 14 12 11 11 11 10
15 19 21 19 18 16 14 13 10 9 9 9 8 9 9 9 9 8 8 7 7 8 7 7 8 8 7 8 9 10 11 15 18 16 11 9 13 10 11 11 11 11 10
16 21 21 20 18 16 14 13 12 11 10 9 9 8 8 7 7 7 6 5 5 6 6 5 5 6 6 6 6 7 9 13 14 14 11 5 11 10 10 10 10 10 9
17 22 22 19 17 15 13 12 12 11 10 10 9 9 8 7 7 6 6 4 4 4 4 3 3 3 4 3 3 4 8 11 13 12 11 0 6 9 9 10 10 10 9
16 24 23 20 18 15 13 12 11 10 9 9 9 9 8 7 7 6 5 5 4 4 3 3 3 2 1 1 1 2 5 10 8 6 4 6 9 8 8 9 9 8 8
17 23 24 20 18 17 15 12 11 10 10 10 10 9 9 8 7 7 6 6 5 5 5 4 3 3 2 3 2 1 1 6 5 8 2 12 9 10 9 6 7 7 7
19 20 24 22 20 18 16 14 12 11 11 11 11 10 9 9 9 8 7 7 7 6 6 5 5 5 5 5 5 4 3 3 10 8 4 9 11 14 11 7 5 6 6
20 19 22 24 23 21 18 16 14 13 12 12 12 11 11 11 10 10 9 10 9 8 8 8 8 8 7 7 7 6 6 5 5 7 5 13 15 14 12 8 6 6 6
20 20 20 26 25 24 22 20 19 17 15 15 14 13 13 13 13 12 12 12 12 11 11 11 10 10 10 9 8 8 8 8 5 8 7 15 17 18 14 9 7 6 6
20 20 18 28 28 25 24 22 21 20 18 18 18 17 17 16 15 15 15 15 14 14 13 13 13 13 12 11 11 10 10 9 7 4 7 17 19 18 15 11 8 7 7
22 22 19 24 29 28 27 26 25 24 24 23 22 21 21 19 18 17 17 18 16 17 16 16 16 15 15 13 12 11 8 10 8 5 18 19 21 21 17 13 10 9 9
22 22 23 22 25 28 28 25 27 28 27 26 25 25 23 21 20 18 18 19 20 20 19 19 18 18 18 15 13 10 13 6 10 11 17 20 22 21 19 15 12 12 11
23 24 24 26 26 26 24 27 24 23 30 31 30 28 27 24 23 21 20 22 20 22 22 22 20 18 18 17 12 13 14 13 11 11 18 22 21 23 21 18 15 15 14
26 26 27 29 29 30 27 25 26 25 22 24 25 27 29 28 26 22 24 21 21 17 18 16 18 16 17 15 13 19 24 23 22 19 20 23 24 24 22 21 19 18 17
28 28 29 29 33 30 30 31 29 28 25 23 23 23 24 24 26 25 25 24 23 21 17 18 19 17 21 21 20 20 20 21 21 19 24 24 23 23 23 23 23 21 21
23 30 30 32 33 35 31 31 30 29 30 26 29 26 29 27 25 27 28 26 25 25 25 23 23 22 22 21 23 21 22 22 22 22 22 24 25 23 24 25 26 25 24
27 28 33 32 33 36 36 32 35 31 30 34 28 30 31 33 31 29 29 30 27 27 25 28 29 28 27 26 26 24 24 25 24 22 24 25 27 27 28 27 25 26 26
25 31 35 35 33 34 38 34 34 37 34 32 33 29 30 34 34 31 33 34 30 28 29 30 29 29 30 28 27 25 24 27 27 26 27 26 28 29 28 28 31 27 26
25 26 33 34 33 31 32 34 34 34 35 36 32 33 32 32 34 34 32 34 32 32 33 34 34 30 30 30 29 29 32 29 26 32 31 30 33 35 34 39 41 37 31
17 18 30 30 31 31 33 36 35 36 33 35 35 35 34 35 34 36 35 32 35 35 37 36 35 35 37 33 29 32 34 34 37 39 40 42 43 41 41 43 41 40 36
18 18 21 28 31 33 34 34 35 33 32 31 34 36 35 35 36 37 38 38 35 37 39 39 39 39 40 38 40 31 30 33 36 36 38 41 40 37 40 43 46 43 41
12 16 21 21 30 32 31 29 28 27 26 29 33 33 34 34 36 38 40 41 40 38 40 41 42 43 43 38 38 34 16 23 20 32 36 40 41 42 44 46 46 45 43
18 22 23 21 25 28 28 27 26 28 31 31 29 28 32 33 36 36 39 41 43 40 41 39 37 42 42 42 33 41 45 31 16 14 26 30 38 41 42 44 45 44 41
6 14 27 27 18 24 25 26 26 26 25 26 25 27 29 30 33 37 37 38 39 40 42 41 38 37 38 44 45 38 40 45 41 37 26 32 31 34 35 35 38 35 36
11 10 7 10 23 10 16 17 23 24 23 23 26 28 27 28 27 32 35 37 40 40 39 39 41 43 42 45 44 42 42 40 33 38 37 36 43 45 42 40 39 40 36
Wind_Direction
169 168 157 153 152 150 145 142 145 145 141 133 129 127 121 119 118 115 111 107 104 103 103 105 102 100 98 94 91 93 87 80 69 67 64 61 66 66 63 54 55 59 61
177 168 159 156 154 153 151 148 156 160 156 147 142 138 132 128 124 119 117 112 108 109 111 109 106 103 100 98 90 90 84 82 76 67 55 46 55 64 66 60 55 57 58
181 172 161 157 155 154 156 155 162 171 170 164 161 155 144 140 135 128 126 123 122 120 119 114 111 105 99 93 90 91 87 89 81 77 68 34 14 48 56 56 51 49 48
189 180 167 159 153 154 154 158 162 173 177 177 175 169 160 155 147 145 141 138 133 132 130 125 119 117 110 98 92 93 93 94 86 71 61 116 337 21 42 45 45 43 46
194 182 172 163 159 156 154 160 164 171 182 186 187 181 175 174 168 167 164 164 156 153 151 144 142 136 119 115 104 100 99 105 104 94 78 212 321 5 25 37 41 36 32
189 181 174 171 167 163 163 168 168 175 185 193 197 195 191 190 186 191 187 189 188 180 187 184 187 189 161 180 164 121 112 120 116 102 179 292 292 348 10 23 26 26 20
181 179 177 178 176 175 174 178 179 183 192 198 203 207 203 205 204 208 208 209 212 206 207 209 228 246 252 257 264 263 156 151 125 104 129 280 291 314 339 355 15 17 12
180 183 181 183 185 185 185 190 191 193 199 204 208 213 215 216 218 219 219 225 224 231 232 233 239 252 264 268 271 270 262 202 161 115 220 254 279 288 304 324 352 4 356
192 195 189 192 191 190 194 196 200 205 208 213 216 217 220 223 226 226 225 230 235 235 242 242 241 249 255 263 268 270 268 254 222 183 167 259 261 274 288 299 315 339 343
194 213 202 198 199 199 200 201 205 207 212 218 222 224 226 227 227 229 232 233 235 238 240 246 250 248 253 259 264 263 259 257 245 205 173 250 260 264 275 280 299 309 322
194 219 209 202 204 206 209 210 213 216 218 221 224 226 227 230 232 232 234 237 237 241 243 245 248 252 255 256 258 258 258 260 249 158 252 249 256 265 263 265 277 295 297
200 205 225 208 208 209 213 217 219 221 222 224 226 229 231 231 235 236 238 242 242 243 244 247 250 251 254 258 260 255 273 268 215 207 248 252 257 263 258 262 271 281 288
206 209 213 222 215 214 211 223 222 225 227 229 233 236 236 236 237 241 242 243 243 244 247 248 250 255 258 258 263 263 286 264 211 225 246 253 256 263 257 259 266 271 274
210 210 211 225 219 221 213 212 235 233 231 233 234 236 239 234 233 231 236 246 254 254 248 251 251 258 259 257 228 246 261 261 242 247 246 254 258 264 259 258 260 264 267
205 212 211 216 227 220 212 211 217 236 247 242 244 240 237 237 230 230 235 234 255 265 268 256 261 263 274 276 257 245 234 241 239 223 254 257 261 264 265 259 260 262 265
208 207 215 211 227 232 225 205 220 216 233 244 242 247 250 243 234 230 240 235 225 245 257 260 263 238 247 256 263 263 261 253 249 249 233 255 260 266 271 266 262 261 264
228 212 214 215 220 232 236 219 206 227 216 231 235 234 247 250 241 228 239 244 233 230 230 235 245 249 244 252 258 259 264 264 252 244 253 252 255 260 266 270 265 260 261
219 220 214 220 217 230 234 232 217 212 228 217 229 237 232 246 248 236 231 240 244 235 235 238 236 240 244 244 243 250 255 262 265 255 240 245 254 260 266 267 268 262 259
244 219 212 219 225 228 233 235 228 221 219 230 225 232 238 239 252 249 239 238 237 242 234 236 244 242 241 243 245 250 251 255 258 260 256 250 247 254 259 262 262 271 262
237 240 211 215 223 233 237 236 232 231 224 226 230 232 231 242 245 252 249 240 239 235 240 237 237 239 246 244 243 250 249 244 244 246 244 248 253 250 252 254 261 268 263
245 217 202 211 222 229 232 236 233 231 234 227 236 232 239 232 242 249 254 250 236 240 241 242 241 242 241 239 245 248 250 251 244 250 251 251 252 251 252 254 259 258 263
225 225 208 214 225 230 236 243 246 242 233 240 238 240 237 240 236 242 252 254 252 242 242 242 239 241 245 242 236 245 250 254 254 249 249 253 254 247 249 253 255 257 267
222 222 222 214 225 232 236 237 239 235 243 237 239 243 247 247 244 241 246 254 255 250 249 247 244 240 240 243 236 229 230 236 244 251 250 252 254 255 254 257 260 259 269
225 227 226 220 222 228 235 232 235 236 235 238 239 246 247 250 255 254 254 252 255 253 249 247 250 249 244 244 242 243 242 248 234 249 255 251 248 251 254 259 262 267 268
238 243 231 221 208 219 226 237 233 235 244 250 254 254 252 255 256 258 260 261 258 253 260 254 247 247 253 250 243 241 248 249 247 250 254 261 261 259 254 261 267 265 266
90 96 108 198 215 211 213 233 235 239 249 254 257 256 257 255 257 260 263 264 264 261 261 261 257 248 246 247 251 252 250 250 259 252 251 261 271 275 277 277 272 270 264
Height
1514 1516 1520 1523 1527 1530 1531 1535 1538 1540 1542 1543 1544 1545 1546 1548 1549 1550 1550 1551 1552 1554 1555 1555 1556 1556 1557 1558 1558 1558 1558 1558 1558 1557 1557 1557 1556 1555 1554 1554 1553 1554 1553
1513 1518 1520 1524 1527 1530 1532 1535 1539 1541 1543 1544 1546 1546 1548 1549 1550 1551 1552 1553 1554 1555 1556 1557 1557 1558 1558 1559 1559 1559 1559 1559 1559 1559 1559 1559 1559 1558 1557 1557 1556 1555 1555
1513 1517 1521 1524 1527 1530 1533 1535 1539 1542 1544 1545 1546 1548 1549 1550 1551 1552 1553 1554 1555 1555 1556 1558 1558 1559 1559 1559 1559 1560 1560 1561 1561 1560 1560 1560 1562 1560 1559 1558 1557 1557 1556
1512 1517 1521 1524 1527 1530 1532 1536 1538 1541 1543 1545 1547 1549 1550 1551 1552 1553 1553 1554 1555 1556 1557 1558 1559 1560 1560 1560 1560 1560 1561 1562 1563 1562 1563 1563 1563 1561 1560 1558 1558 1557 1557
1511 1516 1520 1524 1526 1530 1533 1535 1537 1540 1543 1545 1546 1548 1550 1551 1552 1553 1554 1555 1556 1557 1557 1558 1559 1559 1560 1560 1560 1561 1562 1563 1563 1564 1565 1563 1562 1562 1560 1559 1559 1558 1558
1510 1514 1519 1522 1526 1529 1533 1535 1537 1539 1542 1544 1546 1548 1549 1551 1552 1553 1554 1555 1556 1557 1557 1558 1558 1559 1559 1560 1560 1561 1562 1563 1563 1563 1565 1564 1563 1562 1561 1560 1560 1559 1559
1510 1512 1517 1522 1526 1529 1531 1534 1536 1539 1541 1543 1545 1547 1549 1550 1551 1552 1553 1554 1555 1556 1557 1557 1558 1558 1559 1559 1560 1561 1562 1563 1563 1563 1565 1562 1562 1562 1562 1561 1560 1561 1560
1511 1513 1517 1520 1525 1528 1531 1533 1536 1538 1540 1542 1544 1546 1548 1549 1550 1552 1553 1553 1554 1555 1556 1557 1557 1558 1558 1559 1559 1560 1560 1561 1562 1562 1565 1563 1562 1562 1562 1561 1561 1561 1561
1513 1513 1516 1520 1523 1526 1529 1532 1534 1537 1539 1541 1542 1544 1546 1548 1549 1550 1551 1552 1553 1553 1554 1555 1556 1556 1557 1557 1558 1558 1559 1559 1560 1561 1562 1561 1561 1561 1562 1560 1560 1560 1559
1514 1514 1516 1518 1521 1524 1527 1529 1532 1534 1536 1539 1540 1542 1544 1546 1547 1548 1549 1550 1551 1551 1552 1553 1554 1554 1555 1555 1556 1556 1557 1557 1558 1560 1560 1561 1560 1560 1560 1560 1559 1559 1557
1515 1513 1514 1516 1519 1523 1526 1528 1531 1533 1534 1535 1537 1539 1541 1543 1545 1546 1547 1548 1549 1549 1550 1550 1551 1552 1552 1552 1553 1553 1554 1555 1556 1557 1558 1558 1558 1558 1558 1558 1557 1556 1555
1512 1513 1512 1514 1516 1520 1522 1525 1527 1529 1530 1532 1534 1536 1538 1540 1542 1544 1545 1545 1546 1546 1547 1548 1548 1549 1549 1549 1550 1550 1551 1552 1553 1553 1555 1555 1556 1556 1556 1555 1555 1554 1553
1509 1512 1512 1512 1514 1516 1519 1520 1522 1524 1526 1529 1531 1533 1535 1537 1539 1540 1541 1542 1543 1544 1544 1545 1545 1545 1546 1547 1547 1546 1549 1550 1550 1552 1552 1552 1553 1553 1553 1553 1552 1551 1551
1506 1508 1511 1509 1511 1514 1517 1518 1518 1521 1522 1524 1526 1529 1530 1533 1535 1536 1538 1538 1540 1540 1541 1541 1542 1543 1544 1544 1545 1545 1547 1547 1548 1549 1548 1548 1549 1549 1549 1549 1549 1548 1548
1499 1503 1506 1509 1508 1510 1515 1518 1519 1518 1520 1521 1523 1525 1527 1528 1531 1533 1535 1536 1535 1537 1537 1539 1539 1539 1540 1541 1541 1543 1544 1544 1546 1546 1545 1545 1545 1545 1545 1545 1545 1544 1545
1491 1495 1500 1504 1504 1507 1508 1513 1516 1518 1518 1519 1520 1520 1522 1525 1527 1529 1530 1532 1534 1535 1536 1535 1537 1538 1540 1540 1539 1539 1539 1540 1540 1541 1542 1540 1541 1540 1541 1541 1541 1540 1540
1489 1488 1491 1498 1502 1502 1505 1509 1512 1514 1517 1518 1518 1519 1518 1520 1523 1526 1527 1527 1529 1531 1532 1534 1534 1535 1536 1537 1536 1536 1535 1535 1536 1537 1538 1536 1535 1535 1535 1535 1535 1536 1536
1481 1483 1484 1488 1494 1498 1500 1502 1506 1509 1510 1512 1514 1515 1516 1515 1518 1521 1523 1523 1524 1526 1527 1528 1529 1530 1531 1531 1532 1532 1531 1530 1530 1531 1532 1533 1531 1531 1530 1530 1531 1530 1530
1475 1475 1475 1481 1484 1489 1495 1497 1499 1502 1505 1507 1509 1511 1512 1512 1512 1514 1516 1518 1521 1521 1522 1522 1522 1523 1524 1525 1526 1527 1527 1527 1526 1525 1525 1526 1526 1525 1525 1523 1524 1526 1526
1469 1470 1468 1474 1479 1483 1488 1494 1497 1499 1500 1501 1502 1504 1507 1507 1507 1508 1509 1511 1514 1515 1515 1517 1517 1518 1518 1519 1520 1520 1520 1520 1520 1518 1519 1520 1520 1520 1516 1518 1517 1518 1519
1464 1465 1465 1470 1474 1478 1481 1484 1488 1490 1494 1496 1496 1498 1499 1501 1502 1502 1503 1505 1507 1507 1508 1509 1510 1511 1510 1512 1514 1512 1511 1511 1511 1511 1511 1510 1510 1511 1511 1508 1509 1510 1512
1461 1464 1466 1466 1469 1471 1475 1479 1481 1485 1488 1490 1492 1492 1494 1495 1497 1496 1496 1496 1498 1500 1500 1500 1501 1502 1502 1504 1504 1507 1503 1502 1499 1498 1499 1501 1501 1503 1502 1502 1501 1502 1503
1459 1462 1464 1466 1466 1468 1471 1475 1479 1482 1483 1485 1485 1487 1487 1489 1491 1491 1490 1489 1490 1492 1491 1492 1493 1493 1493 1495 1496 1497 1495 1490 1489 1490 1490 1491 1493 1494 1495 1493 1492 1493 1494
1454 1455 1459 1463 1464 1465 1468 1471 1474 1476 1478 1480 1482 1483 1483 1483 1482 1484 1483 1484 1483 1484 1486 1488 1489 1489 1491 1487 1490 1487 1486 1483 1482 1482 1481 1482 1484 1484 1486 1485 1486 1486 1486
1451 1451 1452 1456 1460 1464 1465 1468 1472 1474 1476 1477 1479 1480 1481 1480 1479 1478 1477 1477 1476 1477 1476 1479 1482 1484 1485 1483 1478 1478 1477 1474 1467 1474 1474 1475 1475 1476 1478 1478 1478 1478 1476
1451 1450 1451 1452 1459 1464 1466 1468 1471 1473 1474 1474 1475 1475 1476 1476 1475 1474 1472 1470 1468 1466 1468 1469 1471 1472 1469 1468 1471 1469 1466 1459 1461 1464 1466 1467 1469 1469 1470 1470 1469 1469 1468